START_TIME,STEP,MOV.,P1,t_acc.,E44,t_acc.,A3,t_acc.,P10,t_acc.
1979-07-03 06:00:24.070 ,0,0,1.,1.2,112.,1.2,0.,1.2,0.,1.2
1979-07-03 06:00:25.270 ,0,0,1.,1.2,9.,1.2,0.,1.2,0.,1.2
1979-07-03 06:00:26.470 ,0,0,1.,1.2,11.,1.2,0.,1.2,0.,1.2
1979-07-03 06:00:27.670 ,0,0,0.,1.2,7.,1.2,0.,1.2,0.,1.2
1979-07-03 06:00:28.870 ,0,0,0.,1.2,3.,1.2,0.,1.2,0.,1.2
1979-07-03 06:00:30.070 ,0,0,0.,1.2,98.,1.2,0.,1.2,0.,1.2
1979-07-03 06:00:31.270 ,0,0,2.,1.2,8.,1.2,0.,1.2,0.,1.2
1979-07-03 06:00:32.470 ,0,0,0.,1.2,5.,1.2,0.,1.2,0.,1.2
1979-07-03 06:00:33.670 ,0,0,1.,1.2,5.,1.2,0.,1.2,0.,1.2
1979-07-03 06:00:34.870 ,0,0,1.,1.2,5.,1.2,0.,1.2,0.,1.2
1979-07-03 06:00:36.070 ,0,0,2.,1.2,132.,1.2,0.,1.2,0.,1.2
1979-07-03 06:00:37.270 ,0,0,0.,1.2,5.,1.2,0.,1.2,0.,1.2
1979-07-03 06:00:38.470 ,0,0,2.,1.2,4.,1.2,1.,1.2,0.,1.2
1979-07-03 06:00:39.670 ,0,0,0.,1.2,4.,1.2,0.,1.2,0.,1.2
1979-07-03 06:00:40.870 ,0,0,0.,1.2,7.,1.2,0.,1.2,0.,1.2
1979-07-03 06:00:42.070 ,0,0,0.,1.2,5.,1.2,0.,1.2,0.,1.2
1979-07-03 06:00:43.270 ,0,0,0.,1.2,4.,1.2,2.,1.2,0.,1.2
1979-07-03 06:00:44.470 ,0,0,1.,1.2,6.,1.2,0.,1.2,0.,1.2
1979-07-03 06:00:45.670 ,0,0,0.,1.2,11.,1.2,0.,1.2,0.,1.2
1979-07-03 06:00:46.870 ,0,0,0.,1.2,2.,1.2,0.,1.2,0.,1.2
1979-07-03 06:00:48.070 ,4,0,0.,1.2,120.,1.2,0.,1.2,0.,1.2
1979-07-03 06:00:49.270 ,4,0,0.,1.2,3.,1.2,0.,1.2,1.,1.2
1979-07-03 06:00:50.470 ,4,0,1.,1.2,2.,1.2,0.,1.2,0.,1.2
1979-07-03 06:00:51.670 ,4,0,0.,1.2,8.,1.2,0.,1.2,0.,1.2
1979-07-03 06:00:52.870 ,4,0,0.,1.2,7.,1.2,0.,1.2,0.,1.2
1979-07-03 06:00:54.070 ,4,0,0.,1.2,88.,1.2,0.,1.2,0.,1.2
1979-07-03 06:00:55.270 ,4,0,1.,1.2,4.,1.2,0.,1.2,0.,1.2
1979-07-03 06:00:56.470 ,4,0,0.,1.2,6.,1.2,0.,1.2,0.,1.2
1979-07-03 06:00:57.670 ,4,0,0.,1.2,5.,1.2,0.,1.2,0.,1.2
1979-07-03 06:00:58.870 ,4,0,1.,1.2,5.,1.2,1.,1.2,0.,1.2
1979-07-03 06:01:00.070 ,4,0,2.,1.2,132.,1.2,1.,1.2,0.,1.2
1979-07-03 06:01:01.270 ,4,0,0.,1.2,4.,1.2,0.,1.2,0.,1.2
1979-07-03 06:01:02.470 ,4,0,0.,1.2,3.,1.2,0.,1.2,0.,1.2
1979-07-03 06:01:03.670 ,4,0,0.,1.2,2.,1.2,0.,1.2,0.,1.2
1979-07-03 06:01:04.870 ,4,0,1.,1.2,3.,1.2,0.,1.2,0.,1.2
1979-07-03 06:01:06.070 ,4,0,1.,1.2,196.,1.2,0.,1.2,0.,1.2
1979-07-03 06:01:07.270 ,4,0,2.,1.2,9.,1.2,0.,1.2,0.,1.2
1979-07-03 06:01:08.470 ,4,0,0.,1.2,8.,1.2,0.,1.2,0.,1.2
1979-07-03 06:01:09.670 ,4,0,1.,1.2,6.,1.2,0.,1.2,0.,1.2
1979-07-03 06:01:10.870 ,4,0,1.,1.2,6.,1.2,0.,1.2,0.,1.2
1979-07-03 06:01:12.070 ,7,0,1.,1.2,220.,1.2,0.,1.2,0.,1.2
1979-07-03 06:01:13.270 ,7,0,1.,1.2,6.,1.2,0.,1.2,0.,1.2
1979-07-03 06:01:14.470 ,7,0,3.,1.2,6.,1.2,0.,1.2,0.,1.2
1979-07-03 06:01:15.670 ,7,0,2.,1.2,5.,1.2,1.,1.2,0.,1.2
1979-07-03 06:01:16.870 ,7,0,0.,1.2,4.,1.2,0.,1.2,0.,1.2
1979-07-03 06:01:18.070 ,7,0,0.,1.2,188.,1.2,0.,1.2,0.,1.2
1979-07-03 06:01:19.270 ,7,0,2.,1.2,9.,1.2,0.,1.2,0.,1.2
1979-07-03 06:01:20.470 ,7,0,1.,1.2,11.,1.2,0.,1.2,0.,1.2
1979-07-03 06:01:21.670 ,7,0,4.,1.2,8.,1.2,0.,1.2,0.,1.2
1979-07-03 06:01:22.870 ,7,0,1.,1.2,10.,1.2,0.,1.2,0.,1.2
1979-07-03 06:01:24.070 ,7,0,0.,1.2,180.,1.2,1.,1.2,0.,1.2
1979-07-03 06:01:25.270 ,7,0,0.,1.2,8.,1.2,4.,1.2,0.,1.2
1979-07-03 06:01:26.470 ,7,0,0.,1.2,7.,1.2,4.,1.2,0.,1.2
1979-07-03 06:01:27.670 ,7,0,0.,1.2,6.,1.2,10.,1.2,0.,1.2
1979-07-03 06:01:28.870 ,7,0,0.,1.2,7.,1.2,8.,1.2,0.,1.2
1979-07-03 06:01:30.070 ,7,0,0.,1.2,6.,1.2,6.,1.2,0.,1.2
1979-07-03 06:01:31.270 ,7,0,0.,1.2,4.,1.2,6.,1.2,0.,1.2
1979-07-03 06:01:32.470 ,7,0,0.,1.2,2.,1.2,3.,1.2,0.,1.2
1979-07-03 06:01:33.670 ,7,0,0.,1.2,8.,1.2,5.,1.2,0.,1.2
1979-07-03 06:01:34.870 ,7,0,0.,1.2,6.,1.2,8.,1.2,0.,1.2
1979-07-03 06:01:36.070 ,3,0,0.,1.2,164.,1.2,0.,1.2,0.,1.2
1979-07-03 06:01:37.270 ,3,0,0.,1.2,6.,1.2,0.,1.2,0.,1.2
1979-07-03 06:01:38.470 ,3,0,1.,1.2,8.,1.2,0.,1.2,0.,1.2
1979-07-03 06:01:39.670 ,3,0,2.,1.2,5.,1.2,0.,1.2,0.,1.2
1979-07-03 06:01:40.870 ,3,0,1.,1.2,3.,1.2,0.,1.2,0.,1.2
1979-07-03 06:01:42.070 ,3,0,2.,1.2,100.,1.2,0.,1.2,0.,1.2
1979-07-03 06:01:43.270 ,3,0,1.,1.2,5.,1.2,0.,1.2,0.,1.2
1979-07-03 06:01:44.470 ,3,0,0.,1.2,7.,1.2,0.,1.2,0.,1.2
1979-07-03 06:01:45.670 ,3,0,2.,1.2,10.,1.2,0.,1.2,0.,1.2
1979-07-03 06:01:46.870 ,3,0,0.,1.2,7.,1.2,0.,1.2,0.,1.2
1979-07-03 06:01:48.070 ,3,0,1.,1.2,128.,1.2,0.,1.2,0.,1.2
1979-07-03 06:01:49.270 ,3,0,0.,1.2,4.,1.2,0.,1.2,0.,1.2
1979-07-03 06:01:50.470 ,3,0,0.,1.2,5.,1.2,1.,1.2,0.,1.2
1979-07-03 06:01:51.670 ,3,0,1.,1.2,8.,1.2,0.,1.2,0.,1.2
1979-07-03 06:01:52.870 ,3,0,0.,1.2,4.,1.2,1.,1.2,0.,1.2
1979-07-03 06:01:54.070 ,3,0,1.,1.2,148.,1.2,0.,1.2,0.,1.2
1979-07-03 06:01:55.270 ,3,0,2.,1.2,5.,1.2,0.,1.2,0.,1.2
1979-07-03 06:01:56.470 ,3,0,1.,1.2,2.,1.2,0.,1.2,0.,1.2
1979-07-03 06:01:57.670 ,3,0,0.,1.2,6.,1.2,0.,1.2,0.,1.2
1979-07-03 06:01:58.870 ,3,0,0.,1.2,8.,1.2,0.,1.2,0.,1.2
1979-07-03 06:02:00.070 ,0,0,0.,1.2,100.,1.2,0.,1.2,0.,1.2
1979-07-03 06:02:01.270 ,0,0,1.,1.2,6.,1.2,0.,1.2,0.,1.2
1979-07-03 06:02:02.470 ,0,0,1.,1.2,10.,1.2,0.,1.2,0.,1.2
1979-07-03 06:02:03.670 ,0,0,2.,1.2,6.,1.2,0.,1.2,0.,1.2
1979-07-03 06:02:04.870 ,0,0,1.,1.2,5.,1.2,0.,1.2,0.,1.2
1979-07-03 06:02:06.070 ,0,0,0.,1.2,108.,1.2,0.,1.2,0.,1.2
1979-07-03 06:02:07.270 ,0,0,1.,1.2,4.,1.2,0.,1.2,0.,1.2
1979-07-03 06:02:08.470 ,0,0,1.,1.2,5.,1.2,0.,1.2,0.,1.2
1979-07-03 06:02:09.670 ,0,0,0.,1.2,12.,1.2,0.,1.2,0.,1.2
1979-07-03 06:02:10.870 ,0,0,0.,1.2,7.,1.2,0.,1.2,0.,1.2
1979-07-03 06:02:12.070 ,0,0,1.,1.2,156.,1.2,0.,1.2,0.,1.2
1979-07-03 06:02:13.270 ,0,0,1.,1.2,9.,1.2,0.,1.2,0.,1.2
1979-07-03 06:02:14.470 ,0,0,0.,1.2,3.,1.2,0.,1.2,0.,1.2
1979-07-03 06:02:15.670 ,0,0,1.,1.2,7.,1.2,0.,1.2,0.,1.2
1979-07-03 06:02:16.870 ,0,0,0.,1.2,5.,1.2,0.,1.2,0.,1.2
1979-07-03 06:02:18.070 ,0,0,3.,1.2,7.,1.2,0.,1.2,0.,1.2
1979-07-03 06:02:19.270 ,0,0,1.,1.2,4.,1.2,0.,1.2,0.,1.2
1979-07-03 06:02:20.470 ,0,0,3.,1.2,6.,1.2,0.,1.2,0.,1.2
1979-07-03 06:02:21.670 ,0,0,2.,1.2,1.,1.2,0.,1.2,0.,1.2
1979-07-03 06:02:22.870 ,0,0,0.,1.2,9.,1.2,0.,1.2,0.,1.2
1979-07-03 06:02:24.070 ,4,0,2.,1.2,116.,1.2,0.,1.2,0.,1.2
1979-07-03 06:02:25.270 ,4,0,3.,1.2,7.,1.2,0.,1.2,0.,1.2
1979-07-03 06:02:26.470 ,4,0,0.,1.2,7.,1.2,0.,1.2,0.,1.2
1979-07-03 06:02:27.670 ,4,0,0.,1.2,9.,1.2,0.,1.2,0.,1.2
1979-07-03 06:02:28.870 ,4,0,1.,1.2,11.,1.2,0.,1.2,0.,1.2
1979-07-03 06:02:30.070 ,4,0,0.,1.2,108.,1.2,0.,1.2,0.,1.2
1979-07-03 06:02:31.270 ,4,0,1.,1.2,3.,1.2,0.,1.2,0.,1.2
1979-07-03 06:02:32.470 ,4,0,1.,1.2,7.,1.2,0.,1.2,0.,1.2
1979-07-03 06:02:33.670 ,4,0,3.,1.2,2.,1.2,0.,1.2,0.,1.2
1979-07-03 06:02:34.870 ,4,0,1.,1.2,2.,1.2,0.,1.2,0.,1.2
1979-07-03 06:02:36.070 ,4,0,0.,1.2,164.,1.2,0.,1.2,0.,1.2
1979-07-03 06:02:37.270 ,4,0,2.,1.2,3.,1.2,0.,1.2,0.,1.2
1979-07-03 06:02:38.470 ,4,0,0.,1.2,7.,1.2,0.,1.2,0.,1.2
1979-07-03 06:02:39.670 ,4,0,0.,1.2,7.,1.2,1.,1.2,0.,1.2
1979-07-03 06:02:40.870 ,4,0,0.,1.2,2.,1.2,0.,1.2,0.,1.2
1979-07-03 06:02:42.070 ,4,0,2.,1.2,204.,1.2,0.,1.2,0.,1.2
1979-07-03 06:02:43.270 ,4,0,0.,1.2,7.,1.2,0.,1.2,0.,1.2
1979-07-03 06:02:44.470 ,4,0,0.,1.2,8.,1.2,0.,1.2,0.,1.2
1979-07-03 06:02:45.670 ,4,0,0.,1.2,5.,1.2,1.,1.2,0.,1.2
1979-07-03 06:02:46.870 ,4,0,1.,1.2,5.,1.2,0.,1.2,0.,1.2
1979-07-03 06:02:48.070 ,7,0,0.,1.2,212.,1.2,0.,1.2,0.,1.2
1979-07-03 06:02:49.270 ,7,0,3.,1.2,9.,1.2,0.,1.2,0.,1.2
1979-07-03 06:02:50.470 ,7,0,1.,1.2,4.,1.2,0.,1.2,0.,1.2
1979-07-03 06:02:51.670 ,7,0,1.,1.2,7.,1.2,0.,1.2,0.,1.2
1979-07-03 06:02:52.870 ,7,0,0.,1.2,6.,1.2,0.,1.2,0.,1.2
1979-07-03 06:02:54.070 ,7,0,3.,1.2,192.,1.2,0.,1.2,0.,1.2
1979-07-03 06:02:55.270 ,7,0,1.,1.2,9.,1.2,0.,1.2,0.,1.2
1979-07-03 06:02:56.470 ,7,0,1.,1.2,5.,1.2,0.,1.2,0.,1.2
1979-07-03 06:02:57.670 ,7,0,1.,1.2,4.,1.2,0.,1.2,0.,1.2
1979-07-03 06:02:58.870 ,7,0,1.,1.2,3.,1.2,0.,1.2,0.,1.2
1979-07-03 06:03:00.070 ,7,0,1.,1.2,164.,1.2,2.,1.2,0.,1.2
1979-07-03 06:03:01.270 ,7,0,1.,1.2,8.,1.2,2.,1.2,0.,1.2
1979-07-03 06:03:02.470 ,7,0,0.,1.2,7.,1.2,2.,1.2,0.,1.2
1979-07-03 06:03:03.670 ,7,0,0.,1.2,5.,1.2,3.,1.2,0.,1.2
1979-07-03 06:03:04.870 ,7,0,0.,1.2,6.,1.2,3.,1.2,0.,1.2
1979-07-03 06:03:06.070 ,7,0,0.,1.2,8.,1.2,10.,1.2,0.,1.2
1979-07-03 06:03:07.270 ,7,0,0.,1.2,7.,1.2,6.,1.2,0.,1.2
1979-07-03 06:03:08.470 ,7,0,0.,1.2,5.,1.2,6.,1.2,0.,1.2
1979-07-03 06:03:09.670 ,7,0,0.,1.2,5.,1.2,4.,1.2,0.,1.2
1979-07-03 06:03:10.870 ,7,0,0.,1.2,4.,1.2,2.,1.2,0.,1.2
1979-07-03 06:03:12.070 ,3,0,0.,1.2,176.,1.2,4.,1.2,0.,1.2
1979-07-03 06:03:13.270 ,3,0,1.,1.2,5.,1.2,0.,1.2,0.,1.2
1979-07-03 06:03:14.470 ,3,0,1.,1.2,6.,1.2,0.,1.2,0.,1.2
1979-07-03 06:03:15.670 ,3,0,2.,1.2,6.,1.2,0.,1.2,0.,1.2
1979-07-03 06:03:16.870 ,3,0,0.,1.2,7.,1.2,0.,1.2,0.,1.2
1979-07-03 06:03:18.070 ,3,0,1.,1.2,136.,1.2,0.,1.2,0.,1.2
1979-07-03 06:03:19.270 ,3,0,1.,1.2,11.,1.2,0.,1.2,0.,1.2
1979-07-03 06:03:20.470 ,3,0,1.,1.2,5.,1.2,0.,1.2,0.,1.2
1979-07-03 06:03:21.670 ,3,0,1.,1.2,4.,1.2,0.,1.2,0.,1.2
1979-07-03 06:03:22.870 ,3,0,0.,1.2,9.,1.2,0.,1.2,0.,1.2
1979-07-03 06:03:24.070 ,3,0,0.,1.2,144.,1.2,0.,1.2,0.,1.2
1979-07-03 06:03:25.270 ,3,0,0.,1.2,2.,1.2,0.,1.2,0.,1.2
1979-07-03 06:03:26.470 ,3,0,0.,1.2,4.,1.2,0.,1.2,0.,1.2
1979-07-03 06:03:27.670 ,3,0,1.,1.2,4.,1.2,0.,1.2,0.,1.2
1979-07-03 06:03:28.870 ,3,0,0.,1.2,10.,1.2,0.,1.2,0.,1.2
1979-07-03 06:03:30.070 ,3,0,0.,1.2,160.,1.2,1.,1.2,0.,1.2
1979-07-03 06:03:31.270 ,3,0,0.,1.2,2.,1.2,0.,1.2,0.,1.2
1979-07-03 06:03:32.470 ,3,0,1.,1.2,1.,1.2,0.,1.2,0.,1.2
1979-07-03 06:03:33.670 ,3,0,3.,1.2,4.,1.2,0.,1.2,0.,1.2
1979-07-03 06:03:34.870 ,3,0,1.,1.2,7.,1.2,0.,1.2,0.,1.2
1979-07-03 06:03:36.070 ,0,0,1.,1.2,132.,1.2,0.,1.2,0.,1.2
1979-07-03 06:03:37.270 ,0,0,0.,1.2,5.,1.2,0.,1.2,0.,1.2
1979-07-03 06:03:38.470 ,0,0,0.,1.2,3.,1.2,0.,1.2,0.,1.2
1979-07-03 06:03:39.670 ,0,0,2.,1.2,9.,1.2,0.,1.2,0.,1.2
1979-07-03 06:03:40.870 ,0,0,0.,1.2,8.,1.2,0.,1.2,0.,1.2
1979-07-03 06:03:42.070 ,0,0,1.,1.2,110.,1.2,1.,1.2,0.,1.2
1979-07-03 06:03:43.270 ,0,0,0.,1.2,8.,1.2,0.,1.2,0.,1.2
1979-07-03 06:03:44.470 ,0,0,1.,1.2,5.,1.2,0.,1.2,0.,1.2
1979-07-03 06:03:45.670 ,0,0,1.,1.2,9.,1.2,0.,1.2,0.,1.2
1979-07-03 06:03:46.870 ,0,0,0.,1.2,9.,1.2,0.,1.2,0.,1.2
1979-07-03 06:03:48.070 ,0,0,1.,1.2,212.,1.2,0.,1.2,0.,1.2
1979-07-03 06:03:49.270 ,0,0,0.,1.2,3.,1.2,0.,1.2,0.,1.2
1979-07-03 06:03:50.470 ,0,0,0.,1.2,6.,1.2,0.,1.2,0.,1.2
1979-07-03 06:03:51.670 ,0,0,1.,1.2,2.,1.2,0.,1.2,0.,1.2
1979-07-03 06:03:52.870 ,0,0,0.,1.2,3.,1.2,0.,1.2,0.,1.2
1979-07-03 06:03:54.070 ,0,0,1.,1.2,12.,1.2,0.,1.2,0.,1.2
1979-07-03 06:03:55.270 ,0,0,1.,1.2,10.,1.2,0.,1.2,0.,1.2
1979-07-03 06:03:56.470 ,0,0,1.,1.2,7.,1.2,0.,1.2,0.,1.2
1979-07-03 06:03:57.670 ,0,0,0.,1.2,4.,1.2,0.,1.2,0.,1.2
1979-07-03 06:03:58.870 ,0,0,2.,1.2,5.,1.2,0.,1.2,0.,1.2
1979-07-03 06:04:00.070 ,4,0,0.,1.2,132.,1.2,0.,1.2,0.,1.2
1979-07-03 06:04:01.270 ,4,0,0.,1.2,6.,1.2,0.,1.2,0.,1.2
1979-07-03 06:04:02.470 ,4,0,2.,1.2,7.,1.2,0.,1.2,0.,1.2
1979-07-03 06:04:03.670 ,4,0,0.,1.2,5.,1.2,0.,1.2,0.,1.2
1979-07-03 06:04:04.870 ,4,0,0.,1.2,8.,1.2,0.,1.2,0.,1.2
1979-07-03 06:04:06.070 ,4,0,0.,1.2,102.,1.2,0.,1.2,0.,1.2
1979-07-03 06:04:07.270 ,4,0,0.,1.2,4.,1.2,0.,1.2,0.,1.2
1979-07-03 06:04:08.470 ,4,0,1.,1.2,4.,1.2,0.,1.2,0.,1.2
1979-07-03 06:04:09.670 ,4,0,1.,1.2,11.,1.2,0.,1.2,0.,1.2
1979-07-03 06:04:10.870 ,4,0,2.,1.2,7.,1.2,0.,1.2,0.,1.2
1979-07-03 06:04:12.070 ,4,0,1.,1.2,132.,1.2,0.,1.2,0.,1.2
1979-07-03 06:04:13.270 ,4,0,0.,1.2,1.,1.2,0.,1.2,0.,1.2
1979-07-03 06:04:14.470 ,4,0,1.,1.2,4.,1.2,0.,1.2,1.,1.2
1979-07-03 06:04:15.670 ,4,0,0.,1.2,2.,1.2,0.,1.2,0.,1.2
1979-07-03 06:04:16.870 ,4,0,1.,1.2,4.,1.2,0.,1.2,0.,1.2
1979-07-03 06:04:18.070 ,4,0,0.,1.2,240.,1.2,0.,1.2,0.,1.2
1979-07-03 06:04:19.270 ,4,0,1.,1.2,2.,1.2,0.,1.2,0.,1.2
1979-07-03 06:04:20.470 ,4,0,2.,1.2,4.,1.2,0.,1.2,0.,1.2
1979-07-03 06:04:21.670 ,4,0,1.,1.2,4.,1.2,0.,1.2,0.,1.2
1979-07-03 06:04:22.870 ,4,0,0.,1.2,7.,1.2,0.,1.2,0.,1.2
1979-07-03 06:04:24.070 ,7,0,0.,1.2,228.,1.2,0.,1.2,0.,1.2
1979-07-03 06:04:25.270 ,7,0,0.,1.2,8.,1.2,0.,1.2,0.,1.2
1979-07-03 06:04:26.470 ,7,0,0.,1.2,7.,1.2,0.,1.2,0.,1.2
1979-07-03 06:04:27.670 ,7,0,0.,1.2,4.,1.2,0.,1.2,0.,1.2
1979-07-03 06:04:28.870 ,7,0,0.,1.2,10.,1.2,0.,1.2,0.,1.2
1979-07-03 06:04:30.070 ,7,0,1.,1.2,192.,1.2,0.,1.2,0.,1.2
1979-07-03 06:04:31.270 ,7,0,1.,1.2,11.,1.2,1.,1.2,0.,1.2
1979-07-03 06:04:32.470 ,7,0,1.,1.2,5.,1.2,0.,1.2,0.,1.2
1979-07-03 06:04:33.670 ,7,0,1.,1.2,11.,1.2,0.,1.2,0.,1.2
1979-07-03 06:04:34.870 ,7,0,1.,1.2,5.,1.2,0.,1.2,0.,1.2
1979-07-03 06:04:36.070 ,7,0,0.,1.2,168.,1.2,2.,1.2,0.,1.2
1979-07-03 06:04:37.270 ,7,0,0.,1.2,8.,1.2,8.,1.2,0.,1.2
1979-07-03 06:04:38.470 ,7,0,0.,1.2,6.,1.2,6.,1.2,0.,1.2
1979-07-03 06:04:39.670 ,7,0,0.,1.2,3.,1.2,3.,1.2,0.,1.2
1979-07-03 06:04:40.870 ,7,0,0.,1.2,6.,1.2,5.,1.2,0.,1.2
1979-07-03 06:04:42.070 ,7,0,0.,1.2,10.,1.2,5.,1.2,0.,1.2
1979-07-03 06:04:43.270 ,7,0,0.,1.2,7.,1.2,6.,1.2,0.,1.2
1979-07-03 06:04:44.470 ,7,0,0.,1.2,7.,1.2,5.,1.2,0.,1.2
1979-07-03 06:04:45.670 ,7,0,0.,1.2,9.,1.2,4.,1.2,0.,1.2
1979-07-03 06:04:46.870 ,7,0,0.,1.2,6.,1.2,9.,1.2,0.,1.2
1979-07-03 06:04:48.070 ,3,0,0.,1.2,180.,1.2,1.,1.2,0.,1.2
1979-07-03 06:04:49.270 ,3,0,2.,1.2,8.,1.2,1.,1.2,0.,1.2
1979-07-03 06:04:50.470 ,3,0,1.,1.2,5.,1.2,0.,1.2,0.,1.2
1979-07-03 06:04:51.670 ,3,0,1.,1.2,6.,1.2,1.,1.2,0.,1.2
1979-07-03 06:04:52.870 ,3,0,1.,1.2,6.,1.2,1.,1.2,0.,1.2
1979-07-03 06:04:54.070 ,3,0,2.,1.2,124.,1.2,0.,1.2,0.,1.2
1979-07-03 06:04:55.270 ,3,0,0.,1.2,7.,1.2,0.,1.2,0.,1.2
1979-07-03 06:04:56.470 ,3,0,0.,1.2,15.,1.2,1.,1.2,0.,1.2
1979-07-03 06:04:57.670 ,3,0,0.,1.2,3.,1.2,0.,1.2,0.,1.2
1979-07-03 06:04:58.870 ,3,0,0.,1.2,3.,1.2,0.,1.2,0.,1.2
1979-07-03 06:05:00.070 ,3,0,0.,1.2,160.,1.2,0.,1.2,0.,1.2
1979-07-03 06:05:01.270 ,3,0,1.,1.2,3.,1.2,0.,1.2,0.,1.2
1979-07-03 06:05:02.470 ,3,0,0.,1.2,5.,1.2,0.,1.2,0.,1.2
1979-07-03 06:05:03.670 ,3,0,2.,1.2,9.,1.2,0.,1.2,0.,1.2
1979-07-03 06:05:04.870 ,3,0,0.,1.2,7.,1.2,0.,1.2,0.,1.2
1979-07-03 06:05:06.070 ,3,0,0.,1.2,144.,1.2,0.,1.2,0.,1.2
1979-07-03 06:05:07.270 ,3,0,0.,1.2,6.,1.2,0.,1.2,0.,1.2
1979-07-03 06:05:08.470 ,3,0,0.,1.2,4.,1.2,0.,1.2,0.,1.2
1979-07-03 06:05:09.670 ,3,0,2.,1.2,4.,1.2,0.,1.2,0.,1.2
1979-07-03 06:05:10.870 ,3,0,2.,1.2,4.,1.2,0.,1.2,0.,1.2
1979-07-03 06:05:12.070 ,0,0,2.,1.2,122.,1.2,0.,1.2,0.,1.2
1979-07-03 06:05:13.270 ,0,0,1.,1.2,6.,1.2,0.,1.2,0.,1.2
1979-07-03 06:05:14.470 ,0,0,1.,1.2,6.,1.2,0.,1.2,0.,1.2
1979-07-03 06:05:15.670 ,0,0,3.,1.2,6.,1.2,1.,1.2,0.,1.2
1979-07-03 06:05:16.870 ,0,0,0.,1.2,8.,1.2,0.,1.2,0.,1.2
1979-07-03 06:05:18.070 ,0,0,1.,1.2,106.,1.2,0.,1.2,0.,1.2
1979-07-03 06:05:19.270 ,0,0,1.,1.2,5.,1.2,0.,1.2,0.,1.2
1979-07-03 06:05:20.470 ,0,0,0.,1.2,7.,1.2,0.,1.2,0.,1.2
1979-07-03 06:05:21.670 ,0,0,1.,1.2,12.,1.2,0.,1.2,0.,1.2
1979-07-03 06:05:22.870 ,0,0,1.,1.2,8.,1.2,0.,1.2,0.,1.2
1979-07-03 06:05:24.070 ,0,0,0.,1.2,172.,1.2,0.,1.2,0.,1.2
1979-07-03 06:05:25.270 ,0,0,0.,1.2,2.,1.2,0.,1.2,0.,1.2
1979-07-03 06:05:26.470 ,0,0,1.,1.2,4.,1.2,0.,1.2,0.,1.2
1979-07-03 06:05:27.670 ,0,0,0.,1.2,4.,1.2,1.,1.2,0.,1.2
1979-07-03 06:05:28.870 ,0,0,0.,1.2,3.,1.2,0.,1.2,0.,1.2
1979-07-03 06:05:30.070 ,0,0,0.,1.2,13.,1.2,0.,1.2,0.,1.2
1979-07-03 06:05:31.270 ,0,0,1.,1.2,7.,1.2,0.,1.2,0.,1.2
1979-07-03 06:05:32.470 ,0,0,1.,1.2,6.,1.2,0.,1.2,0.,1.2
1979-07-03 06:05:33.670 ,0,0,0.,1.2,6.,1.2,0.,1.2,0.,1.2
1979-07-03 06:05:34.870 ,0,0,1.,1.2,7.,1.2,0.,1.2,0.,1.2
1979-07-03 06:05:36.070 ,0,0,1.,1.2,128.,1.2,0.,1.2,0.,1.2
1979-07-03 06:05:37.270 ,0,0,0.,1.2,7.,1.2,0.,1.2,0.,1.2
1979-07-03 06:05:38.470 ,0,0,0.,1.2,12.,1.2,1.,1.2,0.,1.2
1979-07-03 06:05:39.670 ,0,0,0.,1.2,9.,1.2,0.,1.2,0.,1.2
1979-07-03 06:05:40.870 ,0,0,0.,1.2,9.,1.2,1.,1.2,0.,1.2
1979-07-03 06:05:42.070 ,0,0,1.,1.2,110.,1.2,0.,1.2,0.,1.2
1979-07-03 06:05:43.270 ,0,0,0.,1.2,6.,1.2,0.,1.2,0.,1.2
1979-07-03 06:05:44.470 ,0,0,0.,1.2,8.,1.2,0.,1.2,0.,1.2
1979-07-03 06:05:45.670 ,0,0,0.,1.2,5.,1.2,0.,1.2,0.,1.2
1979-07-03 06:05:46.870 ,0,0,1.,1.2,8.,1.2,0.,1.2,0.,1.2
1979-07-03 06:05:48.070 ,0,0,0.,1.2,168.,1.2,0.,1.2,0.,1.2
1979-07-03 06:05:49.270 ,0,0,1.,1.2,3.,1.2,0.,1.2,0.,1.2
1979-07-03 06:05:50.470 ,0,0,0.,1.2,7.,1.2,0.,1.2,0.,1.2
1979-07-03 06:05:51.670 ,0,0,1.,1.2,4.,1.2,0.,1.2,0.,1.2
1979-07-03 06:05:52.870 ,0,0,1.,1.2,6.,1.2,0.,1.2,1.,1.2
1979-07-03 06:05:54.070 ,0,0,2.,1.2,212.,1.2,0.,1.2,0.,1.2
1979-07-03 06:05:55.270 ,0,0,1.,1.2,4.,1.2,0.,1.2,0.,1.2
1979-07-03 06:05:56.470 ,0,0,1.,1.2,4.,1.2,0.,1.2,0.,1.2
1979-07-03 06:05:57.670 ,0,0,1.,1.2,4.,1.2,0.,1.2,0.,1.2
1979-07-03 06:05:58.870 ,0,0,4.,1.2,10.,1.2,0.,1.2,0.,1.2
1979-07-03 06:06:00.070 ,0,0,1.,1.2,224.,1.2,0.,1.2,0.,1.2
1979-07-03 06:06:01.270 ,0,0,2.,1.2,4.,1.2,0.,1.2,0.,1.2
1979-07-03 06:06:02.470 ,0,0,1.,1.2,6.,1.2,0.,1.2,0.,1.2
1979-07-03 06:06:03.670 ,0,0,1.,1.2,8.,1.2,0.,1.2,0.,1.2
1979-07-03 06:06:04.870 ,0,0,1.,1.2,3.,1.2,0.,1.2,0.,1.2
1979-07-03 06:06:06.070 ,0,0,0.,1.2,176.,1.2,0.,1.2,0.,1.2
1979-07-03 06:06:07.270 ,0,0,0.,1.2,4.,1.2,0.,1.2,1.,1.2
1979-07-03 06:06:08.470 ,0,0,1.,1.2,4.,1.2,0.,1.2,0.,1.2
1979-07-03 06:06:09.670 ,0,0,3.,1.2,12.,1.2,0.,1.2,0.,1.2
1979-07-03 06:06:10.870 ,0,0,0.,1.2,6.,1.2,0.,1.2,0.,1.2
1979-07-03 06:06:12.070 ,0,0,1.,1.2,180.,1.2,2.,1.2,0.,1.2
1979-07-03 06:06:13.270 ,0,0,0.,1.2,5.,1.2,5.,1.2,0.,1.2
1979-07-03 06:06:14.470 ,0,0,0.,1.2,7.,1.2,4.,1.2,0.,1.2
1979-07-03 06:06:15.670 ,0,0,0.,1.2,2.,1.2,7.,1.2,0.,1.2
1979-07-03 06:06:16.870 ,0,0,1.,1.2,4.,1.2,3.,1.2,0.,1.2
1979-07-03 06:06:18.070 ,0,0,0.,1.2,5.,1.2,2.,1.2,0.,1.2
1979-07-03 06:06:19.270 ,0,0,0.,1.2,8.,1.2,5.,1.2,0.,1.2
1979-07-03 06:06:20.470 ,0,0,0.,1.2,4.,1.2,4.,1.2,0.,1.2
1979-07-03 06:06:21.670 ,0,0,0.,1.2,10.,1.2,2.,1.2,0.,1.2
1979-07-03 06:06:22.870 ,0,0,0.,1.2,3.,1.2,3.,1.2,0.,1.2
1979-07-03 06:06:24.070 ,5,0,2.,1.2,192.,1.2,5.,1.2,0.,1.2
1979-07-03 06:06:25.270 ,5,0,1.,1.2,4.,1.2,0.,1.2,0.,1.2
1979-07-03 06:06:26.470 ,5,0,0.,1.2,9.,1.2,0.,1.2,0.,1.2
1979-07-03 06:06:27.670 ,5,0,1.,1.2,7.,1.2,0.,1.2,0.,1.2
1979-07-03 06:06:28.870 ,5,0,1.,1.2,4.,1.2,0.,1.2,0.,1.2
1979-07-03 06:06:30.070 ,5,0,1.,1.2,220.,1.2,0.,1.2,0.,1.2
1979-07-03 06:06:31.270 ,5,0,0.,1.2,7.,1.2,0.,1.2,0.,1.2
1979-07-03 06:06:32.470 ,5,0,0.,1.2,4.,1.2,0.,1.2,0.,1.2
1979-07-03 06:06:33.670 ,5,0,1.,1.2,5.,1.2,0.,1.2,0.,1.2
1979-07-03 06:06:34.870 ,5,0,0.,1.2,4.,1.2,0.,1.2,0.,1.2
1979-07-03 06:06:36.070 ,5,0,2.,1.2,1.,1.2,0.,1.2,0.,1.2
1979-07-03 06:06:37.270 ,5,0,0.,1.2,7.,1.2,1.,1.2,0.,1.2
1979-07-03 06:06:38.470 ,5,0,2.,1.2,2.,1.2,0.,1.2,0.,1.2
1979-07-03 06:06:39.670 ,5,0,1.,1.2,2.,1.2,0.,1.2,0.,1.2
1979-07-03 06:06:40.870 ,5,0,0.,1.2,6.,1.2,0.,1.2,0.,1.2
1979-07-03 06:06:42.070 ,5,0,0.,1.2,9.,1.2,0.,1.2,0.,1.2
1979-07-03 06:06:43.270 ,5,0,0.,1.2,9.,1.2,0.,1.2,0.,1.2
1979-07-03 06:06:44.470 ,5,0,0.,1.2,7.,1.2,0.,1.2,0.,1.2
1979-07-03 06:06:45.670 ,5,0,1.,1.2,4.,1.2,0.,1.2,0.,1.2
1979-07-03 06:06:46.870 ,5,0,2.,1.2,8.,1.2,0.,1.2,0.,1.2
1979-07-03 06:06:48.070 ,5,0,3.,1.2,10.,1.2,0.,1.2,0.,1.2
1979-07-03 06:06:49.270 ,5,0,0.,1.2,9.,1.2,0.,1.2,0.,1.2
1979-07-03 06:06:50.470 ,5,0,2.,1.2,10.,1.2,0.,1.2,0.,1.2
1979-07-03 06:06:51.670 ,5,0,1.,1.2,10.,1.2,0.,1.2,0.,1.2
1979-07-03 06:06:52.870 ,5,0,0.,1.2,3.,1.2,0.,1.2,0.,1.2
1979-07-03 06:06:54.070 ,5,0,1.,1.2,6.,1.2,0.,1.2,0.,1.2
1979-07-03 06:06:55.270 ,5,0,0.,1.2,8.,1.2,0.,1.2,0.,1.2
1979-07-03 06:06:56.470 ,5,0,0.,1.2,8.,1.2,0.,1.2,0.,1.2
1979-07-03 06:06:57.670 ,5,0,1.,1.2,2.,1.2,1.,1.2,0.,1.2
1979-07-03 06:06:58.870 ,5,0,1.,1.2,7.,1.2,0.,1.2,0.,1.2
1979-07-03 06:07:00.070 ,5,0,2.,1.2,10.,1.2,0.,1.2,0.,1.2
1979-07-03 06:07:01.270 ,5,0,0.,1.2,6.,1.2,0.,1.2,0.,1.2
1979-07-03 06:07:02.470 ,5,0,1.,1.2,5.,1.2,0.,1.2,0.,1.2
1979-07-03 06:07:03.670 ,5,0,1.,1.2,9.,1.2,0.,1.2,0.,1.2
1979-07-03 06:07:04.870 ,5,0,0.,1.2,3.,1.2,0.,1.2,0.,1.2
1979-07-03 06:07:06.070 ,5,0,1.,1.2,4.,1.2,0.,1.2,0.,1.2
1979-07-03 06:07:07.270 ,5,0,0.,1.2,5.,1.2,0.,1.2,0.,1.2
1979-07-03 06:07:08.470 ,5,0,1.,1.2,4.,1.2,1.,1.2,0.,1.2
1979-07-03 06:07:09.670 ,5,0,0.,1.2,6.,1.2,1.,1.2,0.,1.2
1979-07-03 06:07:10.870 ,5,0,0.,1.2,5.,1.2,0.,1.2,0.,1.2
1979-07-03 06:07:12.070 ,4,0,1.,1.2,3.,1.2,0.,1.2,0.,1.2
1979-07-03 06:07:13.270 ,4,0,0.,1.2,5.,1.2,1.,1.2,0.,1.2
1979-07-03 06:07:14.470 ,4,0,0.,1.2,4.,1.2,0.,1.2,0.,1.2
1979-07-03 06:07:15.670 ,4,0,2.,1.2,7.,1.2,0.,1.2,0.,1.2
1979-07-03 06:07:16.870 ,4,0,0.,1.2,6.,1.2,0.,1.2,0.,1.2
1979-07-03 06:07:18.070 ,4,0,0.,1.2,164.,1.2,0.,1.2,0.,1.2
1979-07-03 06:07:19.270 ,4,0,0.,1.2,7.,1.2,0.,1.2,0.,1.2
1979-07-03 06:07:20.470 ,4,0,1.,1.2,6.,1.2,0.,1.2,0.,1.2
1979-07-03 06:07:21.670 ,4,0,2.,1.2,3.,1.2,0.,1.2,0.,1.2
1979-07-03 06:07:22.870 ,4,0,1.,1.2,5.,1.2,0.,1.2,0.,1.2
1979-07-03 06:07:24.070 ,4,0,0.,1.2,8.,1.2,0.,1.2,0.,1.2
1979-07-03 06:07:25.270 ,4,0,1.,1.2,3.,1.2,0.,1.2,0.,1.2
1979-07-03 06:07:26.470 ,4,0,1.,1.2,6.,1.2,0.,1.2,0.,1.2
1979-07-03 06:07:27.670 ,4,0,1.,1.2,3.,1.2,0.,1.2,0.,1.2
1979-07-03 06:07:28.870 ,4,0,0.,1.2,5.,1.2,0.,1.2,0.,1.2
1979-07-03 06:07:30.070 ,4,0,2.,1.2,6.,1.2,0.,1.2,0.,1.2
1979-07-03 06:07:31.270 ,4,0,0.,1.2,7.,1.2,0.,1.2,0.,1.2
1979-07-03 06:07:32.470 ,4,0,1.,1.2,5.,1.2,0.,1.2,0.,1.2
1979-07-03 06:07:33.670 ,4,0,0.,1.2,5.,1.2,0.,1.2,0.,1.2
1979-07-03 06:07:34.870 ,4,0,0.,1.2,4.,1.2,0.,1.2,0.,1.2
1979-07-03 06:07:36.070 ,4,0,0.,1.2,3.,1.2,0.,1.2,0.,1.2
1979-07-03 06:07:37.270 ,4,0,1.,1.2,7.,1.2,0.,1.2,0.,1.2
1979-07-03 06:07:38.470 ,4,0,1.,1.2,4.,1.2,0.,1.2,0.,1.2
1979-07-03 06:07:39.670 ,4,0,0.,1.2,1.,1.2,0.,1.2,0.,1.2
1979-07-03 06:07:40.870 ,4,0,0.,1.2,8.,1.2,0.,1.2,0.,1.2
1979-07-03 06:07:42.070 ,4,0,0.,1.2,7.,1.2,0.,1.2,0.,1.2
1979-07-03 06:07:43.270 ,4,0,0.,1.2,5.,1.2,0.,1.2,0.,1.2
1979-07-03 06:07:44.470 ,4,0,1.,1.2,5.,1.2,0.,1.2,0.,1.2
1979-07-03 06:07:45.670 ,4,0,0.,1.2,3.,1.2,0.,1.2,0.,1.2
1979-07-03 06:07:46.870 ,4,0,1.,1.2,5.,1.2,0.,1.2,0.,1.2
1979-07-03 06:07:48.070 ,4,0,0.,1.2,6.,1.2,1.,1.2,0.,1.2
1979-07-03 06:07:49.270 ,4,0,1.,1.2,5.,1.2,0.,1.2,0.,1.2
1979-07-03 06:07:50.470 ,4,0,2.,1.2,5.,1.2,0.,1.2,0.,1.2
1979-07-03 06:07:51.670 ,4,0,0.,1.2,10.,1.2,0.,1.2,0.,1.2
1979-07-03 06:07:52.870 ,4,0,0.,1.2,6.,1.2,0.,1.2,0.,1.2
1979-07-03 06:07:54.070 ,4,0,1.,1.2,4.,1.2,1.,1.2,0.,1.2
1979-07-03 06:07:55.270 ,4,0,2.,1.2,9.,1.2,0.,1.2,0.,1.2
1979-07-03 06:07:56.470 ,4,0,1.,1.2,3.,1.2,0.,1.2,0.,1.2
1979-07-03 06:07:57.670 ,4,0,1.,1.2,6.,1.2,0.,1.2,0.,1.2
1979-07-03 06:07:58.870 ,4,0,1.,1.2,5.,1.2,0.,1.2,0.,1.2
1979-07-03 06:08:00.070 ,3,0,0.,1.2,12.,1.2,0.,1.2,0.,1.2
1979-07-03 06:08:01.270 ,3,0,1.,1.2,6.,1.2,0.,1.2,0.,1.2
1979-07-03 06:08:02.470 ,3,0,1.,1.2,5.,1.2,0.,1.2,0.,1.2
1979-07-03 06:08:03.670 ,3,0,0.,1.2,9.,1.2,0.,1.2,0.,1.2
1979-07-03 06:08:04.870 ,3,0,0.,1.2,0.,1.2,0.,1.2,0.,1.2
1979-07-03 06:08:06.070 ,3,0,2.,1.2,228.,1.2,0.,1.2,0.,1.2
1979-07-03 06:08:07.270 ,3,0,0.,1.2,3.,1.2,0.,1.2,0.,1.2
1979-07-03 06:08:08.470 ,3,0,2.,1.2,7.,1.2,0.,1.2,0.,1.2
1979-07-03 06:08:09.670 ,3,0,0.,1.2,4.,1.2,0.,1.2,0.,1.2
1979-07-03 06:08:10.870 ,3,0,4.,1.2,5.,1.2,0.,1.2,0.,1.2
1979-07-03 06:08:12.070 ,3,0,1.,1.2,3.,1.2,0.,1.2,0.,1.2
1979-07-03 06:08:13.270 ,3,0,0.,1.2,3.,1.2,0.,1.2,0.,1.2
1979-07-03 06:08:14.470 ,3,0,0.,1.2,4.,1.2,0.,1.2,0.,1.2
1979-07-03 06:08:15.670 ,3,0,0.,1.2,1.,1.2,0.,1.2,0.,1.2
1979-07-03 06:08:16.870 ,3,0,0.,1.2,5.,1.2,1.,1.2,1.,1.2
1979-07-03 06:08:18.070 ,3,0,1.,1.2,2.,1.2,0.,1.2,0.,1.2
1979-07-03 06:08:19.270 ,3,0,0.,1.2,2.,1.2,0.,1.2,0.,1.2
1979-07-03 06:08:20.470 ,3,0,1.,1.2,3.,1.2,0.,1.2,0.,1.2
1979-07-03 06:08:21.670 ,3,0,0.,1.2,6.,1.2,0.,1.2,0.,1.2
1979-07-03 06:08:22.870 ,3,0,0.,1.2,3.,1.2,0.,1.2,0.,1.2
1979-07-03 06:08:24.070 ,3,0,3.,1.2,5.,1.2,0.,1.2,0.,1.2
1979-07-03 06:08:25.270 ,3,0,0.,1.2,7.,1.2,0.,1.2,0.,1.2
1979-07-03 06:08:26.470 ,3,0,0.,1.2,6.,1.2,0.,1.2,0.,1.2
1979-07-03 06:08:27.670 ,3,0,0.,1.2,2.,1.2,0.,1.2,0.,1.2
1979-07-03 06:08:28.870 ,3,0,0.,1.2,4.,1.2,0.,1.2,0.,1.2
1979-07-03 06:08:30.070 ,3,0,1.,1.2,4.,1.2,1.,1.2,0.,1.2
1979-07-03 06:08:31.270 ,3,0,2.,1.2,4.,1.2,0.,1.2,0.,1.2
1979-07-03 06:08:32.470 ,3,0,0.,1.2,2.,1.2,1.,1.2,0.,1.2
1979-07-03 06:08:33.670 ,3,0,0.,1.2,6.,1.2,2.,1.2,0.,1.2
1979-07-03 06:08:34.870 ,3,0,1.,1.2,5.,1.2,0.,1.2,0.,1.2